sat.trackr.live / text

‹ back to catalog

STARLINK-31242

NORAD 58864 · 2024-019M

PAYLOAD ACTIVE UNKNOWN

§ Identity

Operator
Country
US
Launch date
2024-01-29
Launch site
AFETR
Launch vehicle
Mass (kg)
RCS (m²)

Purposes: comms

External: N2YO · Heavens-Above · Gunter

§ Orbital elements

Epoch: 2026-09-20T22:36:04.775616Z

Period
94.27 min
Inclination
43.0023°
Eccentricity
0.0000772
Mean motion
15.27576775 rev/d
Perigee alt
482.5 km
Apogee alt
483.6 km
Semi-major
6,861.2 km
B*
-1.1875e-5
RAAN
226.2457°
Arg perigee
272.3210°
Mean anomaly
87.7553°
Rev number
14,894

§ Raw data

STARLINK-312421 58864U 24019M   26263.94172194 -.00000589  00000+0 -11875-4 0  99922 58864  43.0023 226.2457 0000772 272.3210  87.7553 15.27576775148949

JSON: /api/v1/satellites/58864 · /tle

For live sub-satellite position, see the globe view (requires WebGL).

§ Visibility from observer

Set your observer location to see the next 7 days of passes ≥ 10°. The values pass through the URL so the page stays shareable.

No JS? Fill the form by hand. The geolocation button needs JavaScript.